DW8427 Weather Reports


Display with metric or nautical units.
time (UTC)temp
F
wind
direction
speed
MPH
gust
MPH
rain 1hr
in
rain 24hr
in
rain mn
in
humidity
%
barometer
mb
20260902123141 59 115 0.0 2.0 0.00 0.00 0.00 77 1016.3
20260902121557 60 91 0.0 2.0 0.00 0.00 0.00 77 1016.3
20260902120056 59 102 0.0 2.0 0.00 0.00 0.00 77 1016.4
20260902114555 59 96 0.0 3.0 0.00 0.00 0.00 77 1016.4
20260902113054 59 113 0.0 5.0 0.00 0.00 0.00 77 1016.2
20260902111558 59 98 0.0 2.0 0.00 0.00 0.00 77 1016.2
20260902110058 59 107 0.0 2.0 0.00 0.00 0.00 77 1016.3
20260902104552 59 90 0.0 3.0 0.00 0.00 0.00 76 1016.5
20260902103050 59 121 0.0 2.0 0.00 0.00 0.00 76 1016.4
20260902101555 59 102 0.0 3.0 0.00 0.00 0.00 76 1016.6
20260902100048 59 120 0.0 2.0 0.00 0.00 0.00 76 1016.6
20260902094551 59 114 0.0 2.0 0.00 0.00 0.00 76 1016.6
20260902093046 59 103 0.0 1.0 0.00 0.00 0.00 76 1016.7
20260902091600 59 100 0.0 3.0 0.00 0.00 0.00 76 1016.6
20260902090043 59 107 0.0 4.0 0.00 0.00 0.00 76 1016.5
20260902084548 59 140 1.0 4.0 0.00 0.00 0.00 76 1016.5
20260902083042 59 107 0.0 4.0 0.00 0.00 0.00 76 1016.5
20260902081539 59 95 1.0 6.0 0.00 0.00 0.00 75 1016.5
20260902080033 60 124 1.0 5.0 0.00 0.00 0.00 75 1016.4
20260902074532 60 134 2.0 5.0 0.00 0.00 0.00 75 1016.2
20260902073034 60 133 2.0 7.0 0.00 0.00 0.00 74 1016.2
20260902071533 60 108 3.0 6.0 0.00 0.00 0.00 74 1016.2
20260902070033 60 111 2.0 7.0 0.00 0.00 0.00 74 1016.2
20260902064536 61 99 2.0 6.0 0.00 0.00 0.00 74 1016.3
20260902063025 61 94 2.0 6.0 0.00 0.00 0.00 73 1016.3
20260902061524 61 82 1.0 4.0 0.00 0.00 0.00 72 1016.5
20260902060023 61 145 2.0 8.0 0.00 0.00 0.00 71 1016.4
20260902054523 62 92 2.0 5.0 0.00 0.00 0.00 70 1016.5
20260902053022 62 90 1.0 6.0 0.00 0.00 0.00 69 1016.4
20260902051522 63 117 2.0 4.0 0.00 0.00 0.00 68 1016.4
20260902050020 63 139 0.0 5.0 0.00 0.00 0.00 67 1016.4
20260902044518 64 110 0.0 4.0 0.00 0.00 0.00 66 1016.3
20260902043018 64 154 1.0 5.0 0.00 0.00 0.00 65 1016.0
20260902041537 65 153 0.0 4.0 0.00 0.00 0.00 64 1015.9
20260902040017 65 63 0.0 4.0 0.00 0.00 0.00 62 1015.5
20260902034517 66 62 0.0 4.0 0.00 0.00 0.00 62 1015.2
20260902033016 67 89 0.0 4.0 0.00 0.00 0.00 60 1015.0
20260902031516 67 111 0.0 4.0 0.00 0.00 0.00 58 1014.7
20260902030015 68 276 0.0 7.0 0.00 0.00 0.00 57 1014.5
20260902024517 68 343 0.0 2.0 0.00 0.00 0.00 56 1014.2
20260902023017 69 58 0.0 5.0 0.00 0.00 0.00 55 1014.1
20260902021515 70 322 0.0 3.0 0.00 0.00 0.00 53 1014.0
20260902020023 71 77 0.0 2.0 0.00 0.00 0.00 52 1013.9
20260902014513 73 115 0.0 5.0 0.00 0.00 0.00 49 1013.6
20260902013012 75 150 0.0 3.0 0.00 0.00 0.00 47 1013.5
20260902011512 76 254 0.0 2.0 0.00 0.00 0.00 47 1013.5
20260902010018 76 259 0.0 5.0 0.00 0.00 0.00 46 1013.6
20260902004509 76 124 1.0 6.0 0.00 0.00 0.00 46 1013.6
20260902003010 76 236 0.0 6.0 0.00 0.00 0.00 45 1013.6
20260902001514 76 106 0.0 6.0 0.00 0.00 0.00 45 1013.6
20260902000019 77 118 0.0 3.0 0.00 0.00 0.00 44 1013.8
20260901234507 76 102 6.0 13.0 0.00 0.00 0.00 44 1013.7
20260901233006 76 135 2.0 8.0 0.00 0.00 0.00 45 1013.8
20260901231510 76 109 2.0 9.0 0.00 0.00 0.00 44 1014.0
20260901230003 76 86 2.0 8.0 0.00 0.00 0.00 45 1014.1
20260901224502 76 117 1.0 12.0 0.00 0.00 0.00 46 1014.2
20260901223110 76 114 2.0 10.0 0.00 0.00 0.00 47 1014.3
20260901221600 76 146 2.0 9.0 0.00 0.00 0.00 48 1014.4
20260901220057 75 220 2.0 11.0 0.00 0.00 0.00 47 1014.5
20260901214559 76 141 3.0 6.0 0.00 0.00 0.00 48 1014.6
20260901213053 75 190 3.0 11.0 0.00 0.00 0.00 49 1014.7
20260901211552 76 117 1.0 8.0 0.00 0.00 0.00 49 1014.8
20260901210106 75 82 0.0 5.0 0.00 0.00 0.00 51 1014.9
20260901204548 74 219 2.0 8.0 0.00 0.00 0.00 51 1015.1
20260901203104 73 55 1.0 6.0 0.00 0.00 0.00 52 1015.2
20260901201545 72 154 2.0 11.0 0.00 0.00 0.00 53 1015.3
20260901200053 73 110 3.0 11.0 0.00 0.00 0.00 53 1015.4
20260901194543 73 158 3.0 7.0 0.00 0.00 0.00 54 1015.6
20260901193035 71 124 3.0 10.0 0.00 0.00 0.00 55 1015.7
20260901191534 71 136 2.0 8.0 0.00 0.00 0.00 56 1015.8
20260901190048 70 241 3.0 9.0 0.00 0.00 0.00 58 1016.0
20260901184528 68 139 2.0 9.0 0.00 0.00 0.00 59 1016.1
20260901183030 68 130 4.0 13.0 0.00 0.00 0.00 59 1016.2
20260901181526 68 104 2.0 6.0 0.00 0.00 0.00 61 1016.1
20260901180023 67 183 1.0 6.0 0.00 0.00 0.00 62 1016.1
20260901174532 66 75 6.0 11.0 0.00 0.00 0.00 62 1016.1
20260901173022 66 70 5.0 8.0 0.00 0.00 0.00 63 1016.2
20260901171524 65 142 5.0 12.0 0.00 0.00 0.00 65 1016.0
20260901170015 64 115 1.0 7.0 0.00 0.00 0.00 68 1015.8
20260901164515 63 16 1.0 11.0 0.00 0.00 0.00 68 1015.8
20260901163021 63 118 0.0 8.0 0.00 0.00 0.00 69 1015.8
20260901161511 62 143 5.0 12.0 0.00 0.00 0.00 70 1015.7
20260901160006 62 137 3.0 9.0 0.00 0.00 0.00 71 1015.5
20260901154515 62 81 0.0 10.0 0.00 0.00 0.00 72 1015.4
20260901153003 62 120 5.0 10.0 0.00 0.00 0.00 72 1015.0
20260901151502 61 129 4.0 10.0 0.00 0.00 0.00 73 1014.9
20260901150108 61 134 3.0 8.0 0.00 0.00 0.00 73 1014.9
20260901144557 60 160 4.0 8.0 0.00 0.00 0.00 74 1014.7
20260901143107 60 127 3.0 6.0 0.00 0.00 0.00 75 1014.5
20260901141605 60 126 3.0 7.0 0.00 0.00 0.00 75 1014.2
20260901140047 60 113 3.0 10.0 0.00 0.00 0.00 75 1014.0
20260901134543 59 127 5.0 11.0 0.00 0.00 0.00 76 1014.0
20260901133051 59 110 5.0 9.0 0.00 0.00 0.00 77 1013.8
20260901131538 59 131 5.0 12.0 0.00 0.00 0.00 77 1013.6
20260901130037 59 111 2.0 9.0 0.00 0.00 0.00 77 1013.4
20260901124537 59 116 3.0 7.0 0.00 0.00 0.00 77 1013.5